Volver al catálogo

STARLINK-31805

ActivoComunicacionesVLEO
NORAD 59745·PAYLOAD·🇺🇸 United States

Lanzado May 13, 2024 desde Cape Canaveral Space Force Station

Loading…

Próximos Pases (próximas 24 horas)

TLE

ActualizadoSource: CelesTrak SupGP

Época: Sep 15, 2026, 03:18 UTC

1 59745C 24090R   26258.13798611 -.00031052  00000+0 -11249-2 0  2583
2 59745  42.9998 193.2346 0001187 275.1498 239.4610 15.27588322    13

Sigue STARLINK-31805 en tiempo real con AllMySat

Download on the App Store